Voltar ao catálogo

FENGYUN 1C DEB

AtivoPO
NORAD 32162·DEBRIS·🇨🇳 China

Lançado May 10, 1999 de Taiyuan Satellite Launch Center

Loading…

Próximas Passagens (próximas 24 horas)

TLE

EnvelhecendoSource: Space-Track

Época: Sep 9, 2026, 11:13 UTC

1 32162U 99025CTG 26252.46782622  .00004540  00000-0  84063-3 0  9990
2 32162  99.4383 341.9308 0045546  73.3594 287.2598 14.65266295988793

Acompanhe FENGYUN 1C DEB em tempo real com AllMySat

Download on the App Store